Hourly Data Report for December 12, 2011

HALIFAX STANFIELD INT'L A
NOVA SCOTIA

44°52'48.060" N
63°30'00.050" W
145.40 m
8202250
71395
YHZ

Download Data

Hourly Data (December 2011)
Hourly Data Report for December 12, 2011
TIME
LST
Temp Definition
°C
Dew Point Definition
°C
Rel Hum Definition
%
Precip. Amount Definition
mm

Wind Dir Definition
10's deg

Wind Spd Definition
km/h
Visibility Definition
km
Stn Press Definition
kPa
Hmdx Definition


Wind Chill Definition


Weather Definition


00:00 -7.9 -9.8 86   19 7 24.1 101.71   -12 Clear
01:00 -8.0 -9.5 89   21 7 24.1 101.64   -12 Clear
02:00 -6.9 -8.8 86   23 11 24.1 101.70   -12 Mainly Clear
03:00 -7.4 -9.5 85   20 11 24.1 101.69   -12 Mainly Clear
04:00 -7.6 -9.0 90   19 13 24.1 101.61   -13 Clear
05:00 -5.5 -7.5 86   16 15 24.1 101.54   -11 Mostly Cloudy
06:00 -4.7 -7.1 83   17 15 24.1 101.48   -10 Cloudy
07:00 -3.7 -6.1 83   17 11 24.1 101.49   -8 Cloudy
08:00 -2.2 -4.2 86   20 19 24.1 101.47   -8 Cloudy
09:00 1.6 -1.4 80   23 22 24.1 101.47     Cloudy
10:00 2.9 -0.6 78   23 20 24.1 101.45     Cloudy
11:00 4.7 0.1 72   23 32 24.1 101.40     Mostly Cloudy
12:00 5.7 0.5 69   24 30 24.1 101.31     Mostly Cloudy
13:00 5.2 0.7 73   23 24 24.1 101.27     Mainly Clear
14:00 6.6 1.1 68   22 20 24.1 101.21     Mainly Clear
15:00 6.6 1.0 67   24 17 24.1 101.19     Mainly Clear
16:00 5.8 0.7 70   22 13 24.1 101.20     Mainly Clear
17:00 2.2 -0.1 85   19 11 24.1 101.20     Clear
18:00 0.6 -0.2 94   18 13 24.1 101.23     Clear
19:00 2.0 1.1 94   24 13 24.1 101.27     Clear
20:00 2.1 0.6 90   23 13 24.1 101.31     Clear
21:00 1.0 -0.2 92   20 13 24.1 101.36     Clear
22:00 2.0 1.0 93   19 7 24.1 101.32     Cloudy
23:00 0.9 0.2 95   20 9 24.1 101.26     Mostly Cloudy

Notes on Data Quality.

Legend

  • E = Estimated
  • M = Missing
  • NA = Not Available*
  • [empty] = Indicates an unobserved value
Date modified: